Voltar ao catálogo

STARLINK-35705

AtivoComunicaçõesVLEO
NORAD 67039·PAYLOAD·🇺🇸 United States

Lançado Dec 11, 2025 de Cape Canaveral Space Force Station

Loading…

Próximas Passagens (próximas 24 horas)

TLE

AtualizadoSource: CelesTrak SupGP

Época: Sep 15, 2026, 02:32 UTC

1 67039C 25294K   26258.10604167 -.00028946  00000+0 -10482-2 0  2580
2 67039  43.0041  48.2013 0001489 268.1771 309.3384 15.27598967    11

Acompanhe STARLINK-35705 em tempo real com AllMySat

Download on the App Store